Time,TemperatureF,DewpointF,PressureIn,WindDirection,WindDirectionDegrees,WindSpeedMPH,WindSpeedGustMPH,Humidity,HourlyPrecipIn,Conditions,Clouds,dailyrainin,SoftwareType,DateUTC
2013-06-17 00:01:00,53.7,52.3,29.77,SE,143,0.0,0.0,95,0.00,,---,0.00,VWS V14.01,2013-06-17 04:01:00,
2013-06-17 00:06:00,53.2,51.8,29.77,SE,143,1.0,1.0,95,0.00,,---,0.00,VWS V14.01,2013-06-17 04:06:00,
2013-06-17 00:11:00,53.0,51.6,29.77,WSW,238,0.0,1.0,95,0.00,,---,0.00,VWS V14.01,2013-06-17 04:11:00,
2013-06-17 00:16:00,52.7,51.3,29.77,WSW,238,0.0,0.0,95,0.00,,---,0.00,VWS V14.01,2013-06-17 04:16:00,
2013-06-17 00:21:00,52.5,51.1,29.77,WSW,238,0.0,0.0,95,0.00,,---,0.00,VWS V14.01,2013-06-17 04:21:00,
2013-06-17 00:26:00,52.4,51.0,29.77,WSW,238,0.0,0.0,95,0.00,,---,0.00,VWS V14.01,2013-06-17 04:26:00,
2013-06-17 00:31:00,52.4,51.0,29.77,WSW,238,0.0,0.0,95,0.00,,---,0.00,VWS V14.01,2013-06-17 04:31:00,
2013-06-17 00:36:00,52.3,50.9,29.77,WSW,238,0.0,0.0,95,0.00,,---,0.00,VWS V14.01,2013-06-17 04:36:00,
2013-06-17 00:41:00,52.2,50.8,29.77,WSW,238,1.0,1.0,95,0.00,,---,0.00,VWS V14.01,2013-06-17 04:41:00,
2013-06-17 00:46:00,52.2,50.8,29.77,WSW,238,0.0,0.0,95,0.00,,---,0.00,VWS V14.01,2013-06-17 04:46:00,
2013-06-17 00:51:00,52.2,50.8,29.77,WSW,238,0.0,0.0,95,0.00,,---,0.00,VWS V14.01,2013-06-17 04:51:00,
2013-06-17 00:56:00,52.2,50.8,29.77,WSW,238,0.0,1.0,95,0.00,,---,0.00,VWS V14.01,2013-06-17 04:56:00,
2013-06-17 01:01:00,52.6,51.5,29.77,SW,229,0.0,1.0,96,0.00,,---,0.00,VWS V14.01,2013-06-17 05:01:00,
2013-06-17 01:06:00,52.9,51.8,29.77,SW,229,1.0,1.0,96,0.00,,---,0.00,VWS V14.01,2013-06-17 05:06:00,
2013-06-17 01:11:00,53.0,51.9,29.76,SW,229,0.0,0.0,96,0.00,,---,0.00,VWS V14.01,2013-06-17 05:11:00,
2013-06-17 01:16:00,53.1,52.0,29.76,SW,232,1.0,3.0,96,0.00,,---,0.00,VWS V14.01,2013-06-17 05:16:00,
2013-06-17 01:21:00,53.2,52.1,29.75,SE,143,0.0,0.0,96,0.00,,---,0.00,VWS V14.01,2013-06-17 05:21:00,
2013-06-17 01:26:00,53.0,51.9,29.75,SW,236,2.0,2.0,96,0.00,,---,0.00,VWS V14.01,2013-06-17 05:26:00,
2013-06-17 01:31:00,53.0,51.9,29.75,SE,133,0.0,0.0,96,0.00,,---,0.00,VWS V14.01,2013-06-17 05:31:00,
2013-06-17 01:36:00,52.8,51.4,29.75,SE,133,0.0,0.0,95,0.00,,---,0.00,VWS V14.01,2013-06-17 05:36:00,
2013-06-17 01:41:00,52.8,51.7,29.75,SE,133,0.0,0.0,96,0.00,,---,0.00,VWS V14.01,2013-06-17 05:41:00,
2013-06-17 01:46:00,52.7,51.3,29.75,SW,225,0.0,0.0,95,0.00,,---,0.00,VWS V14.01,2013-06-17 05:46:00,
2013-06-17 01:51:00,52.5,51.1,29.75,ESE,115,0.0,0.0,95,0.00,,---,0.00,VWS V14.01,2013-06-17 05:51:00,
2013-06-17 01:56:00,52.4,51.0,29.74,ESE,115,1.0,1.0,95,0.00,,---,0.00,VWS V14.01,2013-06-17 05:56:00,
2013-06-17 02:01:00,52.9,51.8,29.75,West,275,2.0,2.0,96,0.00,,---,0.00,VWS V14.01,2013-06-17 06:01:00,
2013-06-17 02:06:00,52.6,51.5,29.75,West,276,0.0,0.0,96,0.00,,---,0.00,VWS V14.01,2013-06-17 06:06:00,
2013-06-17 02:11:00,52.6,51.5,29.75,West,276,0.0,0.0,96,0.00,,---,0.00,VWS V14.01,2013-06-17 06:11:00,
2013-06-17 02:16:00,52.5,51.4,29.75,WSW,246,0.0,0.0,96,0.00,,---,0.00,VWS V14.01,2013-06-17 06:16:00,
2013-06-17 02:21:00,52.4,51.3,29.75,WSW,246,0.0,0.0,96,0.00,,---,0.00,VWS V14.01,2013-06-17 06:21:00,
2013-06-17 02:25:00,52.1,51.0,29.75,WSW,246,0.0,0.0,96,0.00,,---,0.00,VWS V14.01,2013-06-17 06:25:00,
2013-06-17 02:30:00,52.0,50.9,29.75,WSW,246,0.0,0.0,96,0.00,,---,0.00,VWS V14.01,2013-06-17 06:30:00,
2013-06-17 02:35:00,51.8,50.7,29.75,WSW,252,0.0,0.0,96,0.00,,---,0.00,VWS V14.01,2013-06-17 06:35:00,
2013-06-17 02:40:00,51.8,50.7,29.75,WSW,252,0.0,0.0,96,0.00,,---,0.00,VWS V14.01,2013-06-17 06:40:00,
2013-06-17 02:45:00,51.6,50.5,29.74,WSW,252,0.0,0.0,96,0.00,,---,0.00,VWS V14.01,2013-06-17 06:45:00,
2013-06-17 02:50:00,51.5,50.4,29.74,WSW,252,0.0,0.0,96,0.00,,---,0.00,VWS V14.01,2013-06-17 06:50:00,
2013-06-17 02:55:00,51.4,50.3,29.74,WSW,252,0.0,1.0,96,0.00,,---,0.00,VWS V14.01,2013-06-17 06:55:00,
2013-06-17 03:00:00,51.4,50.3,29.74,WSW,252,0.0,0.0,96,0.00,,---,0.00,VWS V14.01,2013-06-17 07:00:00,
2013-06-17 03:05:00,51.2,50.1,29.74,WSW,251,0.0,0.0,96,0.00,,---,0.00,VWS V14.01,2013-06-17 07:05:00,
2013-06-17 03:10:00,51.0,49.9,29.74,WSW,251,0.0,0.0,96,0.00,,---,0.00,VWS V14.01,2013-06-17 07:10:00,
2013-06-17 03:15:00,50.9,49.8,29.74,West,259,0.0,2.0,96,0.00,,---,0.00,VWS V14.01,2013-06-17 07:15:00,
2013-06-17 03:20:00,50.9,49.8,29.74,West,266,0.0,1.0,96,0.00,,---,0.00,VWS V14.01,2013-06-17 07:20:00,
2013-06-17 03:25:00,50.7,49.6,29.74,SE,125,0.0,0.0,96,0.00,,---,0.00,VWS V14.01,2013-06-17 07:25:00,
2013-06-17 03:30:00,50.5,49.4,29.74,SE,124,0.0,1.0,96,0.00,,---,0.00,VWS V14.01,2013-06-17 07:30:00,
2013-06-17 03:35:00,50.6,49.5,29.74,West,270,1.0,2.0,96,0.00,,---,0.00,VWS V14.01,2013-06-17 07:35:00,
2013-06-17 03:40:00,50.6,49.5,29.74,West,270,0.0,1.0,96,0.00,,---,0.00,VWS V14.01,2013-06-17 07:40:00,
2013-06-17 03:45:00,50.4,49.3,29.73,SE,138,0.0,1.0,96,0.00,,---,0.00,VWS V14.01,2013-06-17 07:45:00,
2013-06-17 03:50:00,50.3,49.2,29.74,SE,136,0.0,1.0,96,0.00,,---,0.00,VWS V14.01,2013-06-17 07:50:00,
2013-06-17 03:55:00,50.3,49.2,29.74,WNW,287,2.0,2.0,96,0.00,,---,0.00,VWS V14.01,2013-06-17 07:55:00,
2013-06-17 04:00:00,50.3,49.2,29.74,WNW,287,1.0,1.0,96,0.00,,---,0.00,VWS V14.01,2013-06-17 08:00:00,
2013-06-17 04:05:00,50.1,49.0,29.73,SE,133,1.0,1.0,96,0.00,,---,0.00,VWS V14.01,2013-06-17 08:05:00,
2013-06-17 04:10:00,50.0,48.9,29.73,WNW,282,1.0,1.0,96,0.00,,---,0.00,VWS V14.01,2013-06-17 08:10:00,
2013-06-17 04:15:00,49.9,48.8,29.74,WNW,283,0.0,0.0,96,0.00,,---,0.00,VWS V14.01,2013-06-17 08:15:00,
2013-06-17 04:20:00,50.1,49.0,29.74,West,274,1.0,1.0,96,0.00,,---,0.00,VWS V14.01,2013-06-17 08:20:00,
2013-06-17 04:25:00,50.0,48.9,29.74,WNW,285,0.0,0.0,96,0.00,,---,0.00,VWS V14.01,2013-06-17 08:25:00,
2013-06-17 04:30:00,50.0,48.9,29.74,WSW,243,0.0,2.0,96,0.00,,---,0.00,VWS V14.01,2013-06-17 08:30:00,
2013-06-17 04:35:00,49.9,48.8,29.74,NE,53,3.0,3.0,96,0.00,,---,0.00,VWS V14.01,2013-06-17 08:35:00,
2013-06-17 04:40:00,49.8,48.7,29.74,SE,136,0.0,1.0,96,0.00,,---,0.00,VWS V14.01,2013-06-17 08:40:00,
2013-06-17 04:45:00,49.8,48.7,29.74,SW,235,0.0,0.0,96,0.00,,---,0.00,VWS V14.01,2013-06-17 08:45:00,
2013-06-17 04:50:00,49.7,48.6,29.74,SW,235,1.0,1.0,96,0.00,,---,0.00,VWS V14.01,2013-06-17 08:50:00,
2013-06-17 04:55:00,49.8,48.7,29.75,SW,229,0.0,0.0,96,0.01,,---,0.01,VWS V14.01,2013-06-17 08:55:00,
2013-06-17 05:00:00,50.0,48.9,29.74,East,96,1.0,1.0,96,0.01,,---,0.01,VWS V14.01,2013-06-17 09:00:00,
2013-06-17 05:05:00,50.2,49.1,29.74,ESE,120,0.0,1.0,96,0.01,,---,0.01,VWS V14.01,2013-06-17 09:05:00,
2013-06-17 05:10:00,50.3,49.2,29.74,ESE,108,3.0,3.0,96,0.01,,---,0.01,VWS V14.01,2013-06-17 09:10:00,
2013-06-17 05:15:00,50.4,49.3,29.75,ESE,115,0.0,1.0,96,0.01,,---,0.01,VWS V14.01,2013-06-17 09:15:00,
2013-06-17 05:20:00,50.5,49.4,29.75,NW,308,0.0,0.0,96,0.01,,---,0.01,VWS V14.01,2013-06-17 09:20:00,
2013-06-17 05:25:00,50.6,49.5,29.75,WNW,290,1.0,1.0,96,0.01,,---,0.01,VWS V14.01,2013-06-17 09:25:00,
2013-06-17 05:30:00,50.7,49.6,29.75,WNW,291,1.0,1.0,96,0.01,,---,0.01,VWS V14.01,2013-06-17 09:30:00,
2013-06-17 05:35:00,51.2,50.1,29.75,ESE,104,1.0,1.0,96,0.01,,---,0.01,VWS V14.01,2013-06-17 09:35:00,
2013-06-17 05:40:00,51.2,50.1,29.75,ESE,104,2.0,2.0,96,0.01,,---,0.01,VWS V14.01,2013-06-17 09:40:00,
2013-06-17 05:45:00,51.4,50.3,29.75,East,80,2.0,2.0,96,0.01,,---,0.01,VWS V14.01,2013-06-17 09:45:00,
2013-06-17 05:50:00,51.5,50.4,29.75,ENE,70,2.0,2.0,96,0.01,,---,0.01,VWS V14.01,2013-06-17 09:50:00,
2013-06-17 05:55:00,51.7,50.6,29.75,West,259,0.0,1.0,96,0.00,,---,0.01,VWS V14.01,2013-06-17 09:55:00,
2013-06-17 06:00:00,51.8,50.7,29.76,SSE,150,0.0,1.0,96,0.00,,---,0.01,VWS V14.01,2013-06-17 10:00:00,
2013-06-17 06:05:00,52.0,51.2,29.76,West,274,1.0,1.0,97,0.00,,---,0.01,VWS V14.01,2013-06-17 10:05:00,
2013-06-17 06:10:00,52.1,51.0,29.76,West,274,0.0,1.0,96,0.00,,---,0.01,VWS V14.01,2013-06-17 10:10:00,
2013-06-17 06:15:00,52.4,51.6,29.76,West,274,0.0,1.0,97,0.00,,---,0.01,VWS V14.01,2013-06-17 10:15:00,
2013-06-17 06:20:00,52.6,51.8,29.76,SE,135,1.0,2.0,97,0.00,,---,0.01,VWS V14.01,2013-06-17 10:20:00,
2013-06-17 06:25:00,53.0,52.2,29.77,WNW,284,1.0,2.0,97,0.00,,---,0.01,VWS V14.01,2013-06-17 10:25:00,
2013-06-17 06:30:00,53.2,52.4,29.77,ESE,115,0.0,0.0,97,0.00,,---,0.01,VWS V14.01,2013-06-17 10:30:00,
2013-06-17 06:35:00,53.4,52.6,29.77,ESE,115,1.0,1.0,97,0.00,,---,0.01,VWS V14.01,2013-06-17 10:35:00,
2013-06-17 06:40:00,53.8,53.0,29.77,West,276,2.0,2.0,97,0.00,,---,0.01,VWS V14.01,2013-06-17 10:40:00,
2013-06-17 06:45:00,54.0,53.2,29.77,West,278,0.0,0.0,97,0.00,,---,0.01,VWS V14.01,2013-06-17 10:45:00,
2013-06-17 06:50:00,54.3,53.5,29.77,ENE,73,1.0,2.0,97,0.00,,---,0.01,VWS V14.01,2013-06-17 10:50:00,
2013-06-17 06:55:00,54.7,53.9,29.77,East,99,0.0,0.0,97,0.00,,---,0.01,VWS V14.01,2013-06-17 10:55:00,
2013-06-17 07:00:00,55.0,54.2,29.77,West,278,2.0,2.0,97,0.00,,---,0.01,VWS V14.01,2013-06-17 11:00:00,
2013-06-17 07:05:00,55.3,54.5,29.77,West,267,0.0,1.0,97,0.00,,---,0.01,VWS V14.01,2013-06-17 11:05:00,
2013-06-17 07:10:00,55.7,54.9,29.77,West,268,0.0,0.0,97,0.00,,---,0.01,VWS V14.01,2013-06-17 11:10:00,
2013-06-17 07:15:00,56.1,55.3,29.77,NE,53,0.0,0.0,97,0.00,,---,0.01,VWS V14.01,2013-06-17 11:15:00,
2013-06-17 07:20:00,56.5,55.7,29.78,WNW,290,2.0,2.0,97,0.00,,---,0.01,VWS V14.01,2013-06-17 11:20:00,
2013-06-17 07:25:00,56.8,56.0,29.78,NW,304,1.0,1.0,97,0.00,,---,0.01,VWS V14.01,2013-06-17 11:25:00,
2013-06-17 07:30:00,57.1,56.3,29.78,West,259,1.0,2.0,97,0.00,,---,0.01,VWS V14.01,2013-06-17 11:30:00,
2013-06-17 07:35:00,57.7,56.9,29.78,ENE,63,1.0,1.0,97,0.00,,---,0.01,VWS V14.01,2013-06-17 11:35:00,
2013-06-17 07:40:00,58.2,57.4,29.78,SE,135,0.0,0.0,97,0.00,,---,0.01,VWS V14.01,2013-06-17 11:40:00,
2013-06-17 07:45:00,59.0,58.2,29.78,NE,53,3.0,4.0,97,0.00,,---,0.01,VWS V14.01,2013-06-17 11:45:00,
2013-06-17 07:50:00,59.5,58.7,29.78,WSW,253,2.0,2.0,97,0.00,,---,0.01,VWS V14.01,2013-06-17 11:50:00,
2013-06-17 07:55:00,60.2,59.3,29.78,NE,53,2.0,2.0,97,0.00,,---,0.01,VWS V14.01,2013-06-17 11:55:00,
2013-06-17 08:00:00,60.9,60.0,29.79,SE,128,0.0,1.0,97,0.00,,---,0.01,VWS V14.01,2013-06-17 12:00:00,
2013-06-17 08:05:00,61.4,60.5,29.79,WNW,297,1.0,1.0,97,0.00,,---,0.01,VWS V14.01,2013-06-17 12:05:00,
2013-06-17 08:10:00,62.2,61.0,29.79,NE,56,2.0,3.0,96,0.00,,---,0.01,VWS V14.01,2013-06-17 12:10:00,
2013-06-17 08:15:00,62.7,61.2,29.79,SSW,193,0.0,1.0,95,0.00,,---,0.01,VWS V14.01,2013-06-17 12:15:00,
2013-06-17 08:20:00,62.9,60.5,29.78,ENE,67,2.0,2.0,92,0.00,,---,0.01,VWS V14.01,2013-06-17 12:20:00,
2013-06-17 08:25:00,63.2,60.5,29.79,West,263,5.0,5.0,91,0.00,,---,0.01,VWS V14.01,2013-06-17 12:25:00,
2013-06-17 08:30:00,65.0,59.7,29.79,WNW,293,3.0,3.0,83,0.00,,---,0.01,VWS V14.01,2013-06-17 12:30:00,
2013-06-17 08:35:00,66.2,58.0,29.79,WNW,297,2.0,2.0,75,0.00,,---,0.01,VWS V14.01,2013-06-17 12:35:00,
2013-06-17 08:40:00,66.8,58.3,29.79,SW,224,3.0,4.0,74,0.00,,---,0.01,VWS V14.01,2013-06-17 12:40:00,
2013-06-17 08:45:00,67.4,59.2,29.79,NE,55,3.0,3.0,75,0.00,,---,0.01,VWS V14.01,2013-06-17 12:45:00,
2013-06-17 08:50:00,67.9,56.5,29.79,WNW,284,3.0,5.0,67,0.00,,---,0.01,VWS V14.01,2013-06-17 12:50:00,
2013-06-17 08:55:00,67.8,56.9,29.79,WNW,284,4.0,4.0,68,0.00,,---,0.01,VWS V14.01,2013-06-17 12:55:00,
2013-06-17 09:00:00,68.2,56.8,29.78,West,269,5.0,5.0,67,0.00,,---,0.01,VWS V14.01,2013-06-17 13:00:00,
2013-06-17 09:05:00,68.6,57.2,29.79,West,266,5.0,5.0,67,0.00,,---,0.01,VWS V14.01,2013-06-17 13:05:00,
2013-06-17 09:10:00,69.0,57.2,29.79,NNW,328,1.0,2.0,66,0.00,,---,0.01,VWS V14.01,2013-06-17 13:10:00,
2013-06-17 09:14:00,69.3,56.2,29.79,WSW,238,5.0,5.0,63,0.00,,---,0.01,VWS V14.01,2013-06-17 13:14:00,
2013-06-17 09:19:00,69.5,56.8,29.79,NE,41,1.0,1.0,64,0.00,,---,0.01,VWS V14.01,2013-06-17 13:19:00,
2013-06-17 09:24:00,69.8,55.3,29.79,South,191,3.0,3.0,60,0.00,,---,0.01,VWS V14.01,2013-06-17 13:24:00,
2013-06-17 09:29:00,69.9,56.3,29.79,West,261,2.0,2.0,62,0.00,,---,0.01,VWS V14.01,2013-06-17 13:29:00,
2013-06-17 09:34:00,69.8,56.2,29.79,WNW,299,6.0,7.0,62,0.00,,---,0.01,VWS V14.01,2013-06-17 13:34:00,
2013-06-17 09:39:00,69.3,55.3,29.79,South,187,2.0,3.0,61,0.00,,---,0.01,VWS V14.01,2013-06-17 13:39:00,
2013-06-17 09:44:00,69.3,55.3,29.79,SSW,204,3.0,3.0,61,0.00,,---,0.01,VWS V14.01,2013-06-17 13:44:00,
2013-06-17 09:49:00,69.2,55.2,29.79,West,262,8.0,11.0,61,0.00,,---,0.01,VWS V14.01,2013-06-17 13:49:00,
2013-06-17 09:54:00,69.1,56.0,29.79,NNE,19,5.0,7.0,63,0.00,,---,0.01,VWS V14.01,2013-06-17 13:54:00,
2013-06-17 09:59:00,69.9,56.8,29.78,ESE,122,2.0,3.0,63,0.00,,---,0.01,VWS V14.01,2013-06-17 13:59:00,
2013-06-17 10:04:00,70.3,57.1,29.78,WNW,297,1.0,6.0,63,0.00,,---,0.01,VWS V14.01,2013-06-17 14:04:00,
2013-06-17 10:09:00,70.2,56.6,29.78,WNW,288,1.0,5.0,62,0.00,,---,0.01,VWS V14.01,2013-06-17 14:09:00,
2013-06-17 10:14:00,70.0,56.4,29.78,West,271,4.0,6.0,62,0.00,,---,0.01,VWS V14.01,2013-06-17 14:14:00,
2013-06-17 10:19:00,70.1,56.5,29.78,WNW,300,2.0,4.0,62,0.00,,---,0.01,VWS V14.01,2013-06-17 14:19:00,
2013-06-17 10:24:00,71.2,58.0,29.78,SE,131,1.0,1.0,63,0.00,,---,0.01,VWS V14.01,2013-06-17 14:24:00,
2013-06-17 10:29:00,72.4,57.3,29.78,SSE,153,2.0,8.0,59,0.00,,---,0.01,VWS V14.01,2013-06-17 14:29:00,
2013-06-17 10:34:00,72.4,56.3,29.78,East,80,2.0,4.0,57,0.00,,---,0.01,VWS V14.01,2013-06-17 14:34:00,
2013-06-17 10:39:00,72.4,56.8,29.78,East,79,2.0,5.0,58,0.00,,---,0.01,VWS V14.01,2013-06-17 14:39:00,
2013-06-17 10:44:00,73.8,56.6,29.78,West,278,7.0,9.0,55,0.00,,---,0.01,VWS V14.01,2013-06-17 14:44:00,
2013-06-17 10:49:00,74.1,56.4,29.77,WNW,285,1.0,6.0,54,0.00,,---,0.01,VWS V14.01,2013-06-17 14:49:00,
2013-06-17 10:54:00,74.0,58.3,29.78,SE,141,6.0,6.0,58,0.00,,---,0.01,VWS V14.01,2013-06-17 14:54:00,
2013-06-17 10:59:00,74.6,57.9,29.77,ENE,72,1.0,3.0,56,0.00,,---,0.01,VWS V14.01,2013-06-17 14:59:00,
2013-06-17 11:04:00,74.2,57.0,29.77,ESE,122,1.0,2.0,55,0.00,,---,0.01,VWS V14.01,2013-06-17 15:04:00,
2013-06-17 11:09:00,74.5,58.3,29.77,West,273,1.0,2.0,57,0.00,,---,0.01,VWS V14.01,2013-06-17 15:09:00,
2013-06-17 11:14:00,75.4,58.1,29.77,ESE,109,0.0,4.0,55,0.00,,---,0.01,VWS V14.01,2013-06-17 15:14:00,
2013-06-17 11:19:00,75.0,55.7,29.77,WNW,284,5.0,9.0,51,0.00,,---,0.01,VWS V14.01,2013-06-17 15:19:00,
2013-06-17 11:24:00,74.8,56.0,29.77,North,358,3.0,6.0,52,0.00,,---,0.01,VWS V14.01,2013-06-17 15:24:00,
2013-06-17 11:29:00,74.6,56.4,29.77,North,356,1.0,4.0,53,0.00,,---,0.01,VWS V14.01,2013-06-17 15:29:00,
2013-06-17 11:34:00,74.8,56.5,29.77,NNW,339,2.0,2.0,53,0.00,,---,0.01,VWS V14.01,2013-06-17 15:34:00,
2013-06-17 11:39:00,75.1,55.8,29.77,West,277,5.0,7.0,51,0.00,,---,0.01,VWS V14.01,2013-06-17 15:39:00,
2013-06-17 11:44:00,75.1,56.3,29.77,NNW,347,2.0,4.0,52,0.00,,---,0.01,VWS V14.01,2013-06-17 15:44:00,
2013-06-17 11:49:00,75.5,56.7,29.77,West,266,1.0,4.0,52,0.00,,---,0.01,VWS V14.01,2013-06-17 15:49:00,
2013-06-17 11:54:00,74.9,57.7,29.77,West,281,5.0,6.0,55,0.00,,---,0.01,VWS V14.01,2013-06-17 15:54:00,
2013-06-17 11:59:00,75.2,55.8,29.77,ENE,62,1.0,4.0,51,0.00,,---,0.01,VWS V14.01,2013-06-17 15:59:00,
2013-06-17 12:04:00,75.5,54.5,29.76,NE,39,2.0,4.0,48,0.00,,---,0.01,VWS V14.01,2013-06-17 16:04:00,
2013-06-17 12:09:00,74.5,55.7,29.77,East,84,0.0,2.0,52,0.00,,---,0.01,VWS V14.01,2013-06-17 16:09:00,
2013-06-17 12:14:00,74.5,56.8,29.77,ENE,76,2.0,2.0,54,0.00,,---,0.01,VWS V14.01,2013-06-17 16:14:00,
2013-06-17 12:19:00,73.9,55.7,29.76,WSW,243,1.0,2.0,53,0.00,,---,0.01,VWS V14.01,2013-06-17 16:19:00,
2013-06-17 12:24:00,73.2,56.1,29.76,NE,45,1.0,1.0,55,0.00,,---,0.01,VWS V14.01,2013-06-17 16:24:00,
2013-06-17 12:29:00,72.9,56.3,29.76,WNW,300,0.0,1.0,56,0.00,,---,0.01,VWS V14.01,2013-06-17 16:29:00,
2013-06-17 12:34:00,72.0,57.4,29.77,West,269,0.0,1.0,60,0.00,,---,0.01,VWS V14.01,2013-06-17 16:34:00,
2013-06-17 12:39:00,70.1,57.8,29.77,West,278,0.0,1.0,65,0.03,,---,0.04,VWS V14.01,2013-06-17 16:39:00,
2013-06-17 12:44:00,68.1,61.3,29.78,WNW,291,0.0,0.0,79,0.04,,---,0.05,VWS V14.01,2013-06-17 16:44:00,
2013-06-17 12:49:00,66.1,61.1,29.78,WSW,250,1.0,1.0,84,0.07,,---,0.08,VWS V14.01,2013-06-17 16:49:00,
2013-06-17 12:54:00,64.9,60.9,29.79,WNW,293,0.0,2.0,87,0.11,,---,0.12,VWS V14.01,2013-06-17 16:54:00,
2013-06-17 12:59:00,64.3,61.3,29.80,ENE,67,0.0,1.0,90,0.13,,---,0.14,VWS V14.01,2013-06-17 16:59:00,
2013-06-17 13:04:00,63.7,60.7,29.80,SW,232,0.0,0.0,90,0.18,,---,0.19,VWS V14.01,2013-06-17 17:04:00,
2013-06-17 13:09:00,62.8,58.9,29.81,SE,126,1.0,1.0,87,0.22,,---,0.23,VWS V14.01,2013-06-17 17:09:00,
2013-06-17 13:14:00,62.5,58.6,29.81,NNW,335,2.0,3.0,87,0.23,,---,0.24,VWS V14.01,2013-06-17 17:14:00,
2013-06-17 13:19:00,62.5,59.5,29.81,NW,309,0.0,0.0,90,0.23,,---,0.24,VWS V14.01,2013-06-17 17:19:00,
2013-06-17 13:24:00,62.8,59.8,29.81,ENE,64,0.0,0.0,90,0.24,,---,0.25,VWS V14.01,2013-06-17 17:24:00,
2013-06-17 13:29:00,63.5,60.8,29.80,West,274,2.0,2.0,91,0.25,,---,0.26,VWS V14.01,2013-06-17 17:29:00,
2013-06-17 13:34:00,64.1,60.8,29.80,SE,134,0.0,1.0,89,0.25,,---,0.26,VWS V14.01,2013-06-17 17:34:00,
2013-06-17 13:39:00,65.0,61.7,29.80,NW,307,1.0,1.0,89,0.22,,---,0.26,VWS V14.01,2013-06-17 17:39:00,
2013-06-17 13:44:00,66.6,63.6,29.79,ENE,67,0.0,0.0,90,0.21,,---,0.26,VWS V14.01,2013-06-17 17:44:00,
2013-06-17 13:49:00,67.1,63.4,29.78,WSW,256,4.0,4.0,88,0.19,,---,0.26,VWS V14.01,2013-06-17 17:49:00,
2013-06-17 13:54:00,67.9,63.2,29.78,ESE,117,1.0,1.0,85,0.15,,---,0.26,VWS V14.01,2013-06-17 17:54:00,
2013-06-17 13:59:00,68.6,62.2,29.79,NE,48,12.0,12.0,80,0.12,,---,0.26,VWS V14.01,2013-06-17 17:59:00,
2013-06-17 14:04:00,69.1,62.3,29.78,SW,232,2.0,2.0,79,0.08,,---,0.26,VWS V14.01,2013-06-17 18:04:00,
2013-06-17 14:09:00,70.3,61.2,29.78,NNW,327,2.0,3.0,73,0.03,,---,0.26,VWS V14.01,2013-06-17 18:09:00,
2013-06-17 14:14:00,71.2,61.3,29.78,WSW,255,6.0,7.0,71,0.02,,---,0.26,VWS V14.01,2013-06-17 18:14:00,
2013-06-17 14:19:00,70.4,59.3,29.78,WSW,238,3.0,4.0,68,0.02,,---,0.26,VWS V14.01,2013-06-17 18:19:00,
2013-06-17 14:24:00,70.4,60.2,29.79,West,259,2.0,3.0,70,0.01,,---,0.26,VWS V14.01,2013-06-17 18:24:00,
2013-06-17 14:29:00,70.5,59.4,29.79,NE,46,3.0,3.0,68,0.00,,---,0.26,VWS V14.01,2013-06-17 18:29:00,
2013-06-17 14:34:00,71.1,60.0,29.78,NE,54,2.0,2.0,68,0.00,,---,0.26,VWS V14.01,2013-06-17 18:34:00,
2013-06-17 14:39:00,71.1,60.8,29.79,NNW,345,3.0,3.0,70,0.00,,---,0.26,VWS V14.01,2013-06-17 18:39:00,
2013-06-17 14:44:00,70.3,58.8,29.79,WNW,288,1.0,1.0,67,0.00,,---,0.26,VWS V14.01,2013-06-17 18:44:00,
2013-06-17 14:49:00,69.0,60.4,29.80,ENE,64,4.0,4.0,74,0.00,,---,0.26,VWS V14.01,2013-06-17 18:49:00,
2013-06-17 14:54:00,68.2,60.3,29.80,East,94,1.0,1.0,76,0.00,,---,0.26,VWS V14.01,2013-06-17 18:54:00,
2013-06-17 14:59:00,67.9,60.1,29.80,WSW,253,2.0,2.0,76,0.00,,---,0.26,VWS V14.01,2013-06-17 18:59:00,
2013-06-17 15:04:00,67.4,60.3,29.80,South,177,0.0,0.0,78,0.00,,---,0.26,VWS V14.01,2013-06-17 19:04:00,
2013-06-17 15:09:00,67.3,60.6,29.80,WNW,293,1.0,1.0,79,0.00,,---,0.26,VWS V14.01,2013-06-17 19:09:00,
2013-06-17 15:14:00,66.8,59.7,29.81,ESE,123,2.0,2.0,78,0.01,,---,0.27,VWS V14.01,2013-06-17 19:14:00,
2013-06-17 15:18:00,67.1,61.8,29.80,ESE,103,1.0,2.0,83,0.01,,---,0.27,VWS V14.01,2013-06-17 19:18:00,
2013-06-17 15:23:00,67.5,61.8,29.81,West,278,3.0,3.0,82,0.01,,---,0.27,VWS V14.01,2013-06-17 19:23:00,
2013-06-17 15:28:00,68.1,61.0,29.80,ESE,117,2.0,2.0,78,0.01,,---,0.27,VWS V14.01,2013-06-17 19:28:00,
2013-06-17 15:33:00,68.8,60.6,29.81,SE,129,1.0,1.0,75,0.01,,---,0.27,VWS V14.01,2013-06-17 19:33:00,
2013-06-17 15:38:00,69.3,59.9,29.81,SW,219,0.0,0.0,72,0.01,,---,0.27,VWS V14.01,2013-06-17 19:38:00,
2013-06-17 15:43:00,70.4,59.8,29.81,ENE,67,1.0,2.0,69,0.01,,---,0.27,VWS V14.01,2013-06-17 19:43:00,
2013-06-17 15:48:00,70.7,58.8,29.80,WNW,291,3.0,4.0,66,0.01,,---,0.27,VWS V14.01,2013-06-17 19:48:00,
2013-06-17 15:53:00,70.6,58.3,29.80,ESE,122,6.0,6.0,65,0.01,,---,0.27,VWS V14.01,2013-06-17 19:53:00,
2013-06-17 15:58:00,70.4,58.5,29.80,ESE,123,1.0,1.0,66,0.01,,---,0.27,VWS V14.01,2013-06-17 19:58:00,
2013-06-17 16:03:00,70.8,58.9,29.80,ESE,115,1.0,5.0,66,0.01,,---,0.27,VWS V14.01,2013-06-17 20:03:00,
2013-06-17 16:08:00,72.0,60.5,29.79,WSW,238,3.0,4.0,67,0.01,,---,0.27,VWS V14.01,2013-06-17 20:08:00,
2013-06-17 16:13:00,71.2,58.8,29.79,SSE,165,0.0,1.0,65,0.01,,---,0.27,VWS V14.01,2013-06-17 20:13:00,
2013-06-17 16:18:00,71.5,59.1,29.79,NNW,333,0.0,1.0,65,0.00,,---,0.27,VWS V14.01,2013-06-17 20:18:00,
2013-06-17 16:23:00,70.5,58.2,29.79,WNW,300,0.0,1.0,65,0.00,,---,0.27,VWS V14.01,2013-06-17 20:23:00,
2013-06-17 16:28:00,70.2,58.3,29.80,West,260,0.0,1.0,66,0.00,,---,0.27,VWS V14.01,2013-06-17 20:28:00,
2013-06-17 16:33:00,69.5,60.5,29.80,NNW,342,1.0,2.0,73,0.00,,---,0.27,VWS V14.01,2013-06-17 20:33:00,
2013-06-17 16:38:00,68.8,58.6,29.80,NNW,340,0.0,0.0,70,0.00,,---,0.27,VWS V14.01,2013-06-17 20:38:00,
2013-06-17 16:43:00,68.5,59.5,29.80,NNW,347,0.0,0.0,73,0.00,,---,0.27,VWS V14.01,2013-06-17 20:43:00,
2013-06-17 16:48:00,68.1,60.3,29.80,NNW,347,1.0,1.0,76,0.00,,---,0.27,VWS V14.01,2013-06-17 20:48:00,
2013-06-17 16:53:00,67.5,59.7,29.81,NE,40,0.0,1.0,76,0.00,,---,0.27,VWS V14.01,2013-06-17 20:53:00,
2013-06-17 16:58:00,67.1,59.7,29.81,NW,325,0.0,1.0,77,0.00,,---,0.27,VWS V14.01,2013-06-17 20:58:00,
2013-06-17 17:03:00,66.7,60.0,29.81,ENE,67,1.0,1.0,79,0.00,,---,0.27,VWS V14.01,2013-06-17 21:03:00,
2013-06-17 17:08:00,66.3,59.6,29.81,NE,50,3.0,3.0,79,0.00,,---,0.27,VWS V14.01,2013-06-17 21:08:00,
2013-06-17 17:13:00,66.9,59.1,29.81,NNW,327,0.0,0.0,76,0.00,,---,0.27,VWS V14.01,2013-06-17 21:13:00,
2013-06-17 17:18:00,68.0,57.9,29.81,WSW,240,2.0,2.0,70,0.00,,---,0.27,VWS V14.01,2013-06-17 21:18:00,
2013-06-17 17:23:00,67.3,57.2,29.81,NNW,342,3.0,5.0,70,0.00,,---,0.27,VWS V14.01,2013-06-17 21:23:00,
2013-06-17 17:28:00,67.6,58.3,29.81,SE,125,1.0,4.0,72,0.00,,---,0.27,VWS V14.01,2013-06-17 21:28:00,
2013-06-17 17:33:00,68.5,58.3,29.81,SE,128,1.0,2.0,70,0.00,,---,0.27,VWS V14.01,2013-06-17 21:33:00,
2013-06-17 17:38:00,68.6,58.0,29.81,SE,134,3.0,3.0,69,0.00,,---,0.27,VWS V14.01,2013-06-17 21:38:00,
2013-06-17 17:43:00,68.4,57.4,29.81,West,264,0.0,1.0,68,0.00,,---,0.27,VWS V14.01,2013-06-17 21:43:00,
2013-06-17 17:48:00,67.8,56.9,29.82,WNW,287,3.0,4.0,68,0.00,,---,0.27,VWS V14.01,2013-06-17 21:48:00,
2013-06-17 17:53:00,67.4,56.9,29.82,SSW,201,0.0,0.0,69,0.00,,---,0.27,VWS V14.01,2013-06-17 21:53:00,
2013-06-17 17:58:00,67.5,57.4,29.82,West,273,2.0,2.0,70,0.00,,---,0.27,VWS V14.01,2013-06-17 21:58:00,
2013-06-17 18:03:00,67.0,56.9,29.82,SW,229,2.0,2.0,70,0.00,,---,0.27,VWS V14.01,2013-06-17 22:03:00,
2013-06-17 18:08:00,66.6,57.3,29.82,SW,221,1.0,3.0,72,0.00,,---,0.27,VWS V14.01,2013-06-17 22:08:00,
2013-06-17 18:13:00,66.2,56.5,29.82,West,276,0.0,1.0,71,0.00,,---,0.27,VWS V14.01,2013-06-17 22:13:00,
2013-06-17 18:18:00,66.2,57.7,29.82,ESE,123,0.0,1.0,74,0.00,,---,0.27,VWS V14.01,2013-06-17 22:18:00,
2013-06-17 18:23:00,66.1,57.2,29.82,ESE,117,1.0,1.0,73,0.00,,---,0.27,VWS V14.01,2013-06-17 22:23:00,
2013-06-17 18:28:00,66.0,57.5,29.82,ESE,117,0.0,1.0,74,0.00,,---,0.27,VWS V14.01,2013-06-17 22:28:00,
2013-06-17 18:33:00,66.0,56.7,29.82,SE,134,1.0,2.0,72,0.00,,---,0.27,VWS V14.01,2013-06-17 22:33:00,
2013-06-17 18:38:00,66.0,56.7,29.82,WSW,248,1.0,2.0,72,0.00,,---,0.27,VWS V14.01,2013-06-17 22:38:00,
2013-06-17 18:43:00,66.1,57.6,29.83,ESE,123,1.0,1.0,74,0.00,,---,0.27,VWS V14.01,2013-06-17 22:43:00,
2013-06-17 18:48:00,66.1,57.2,29.83,SE,124,3.0,4.0,73,0.00,,---,0.27,VWS V14.01,2013-06-17 22:48:00,
2013-06-17 18:53:00,65.8,56.9,29.83,SE,143,0.0,5.0,73,0.00,,---,0.27,VWS V14.01,2013-06-17 22:53:00,
2013-06-17 18:58:00,65.6,56.3,29.83,West,259,0.0,2.0,72,0.00,,---,0.27,VWS V14.01,2013-06-17 22:58:00,
2013-06-17 19:03:00,65.5,57.7,29.83,West,259,0.0,0.0,76,0.00,,---,0.27,VWS V14.01,2013-06-17 23:03:00,
2013-06-17 19:08:00,65.2,57.5,29.83,West,266,0.0,1.0,76,0.00,,---,0.27,VWS V14.01,2013-06-17 23:08:00,
2013-06-17 19:13:00,65.1,58.8,29.83,WSW,256,1.0,1.0,80,0.00,,---,0.27,VWS V14.01,2013-06-17 23:13:00,
2013-06-17 19:18:00,64.7,57.7,29.83,East,89,0.0,0.0,78,0.00,,---,0.27,VWS V14.01,2013-06-17 23:18:00,
2013-06-17 19:23:00,64.6,58.7,29.83,East,89,0.0,0.0,81,0.00,,---,0.27,VWS V14.01,2013-06-17 23:23:00,
2013-06-17 19:28:00,64.0,59.7,29.84,NW,307,0.0,1.0,86,0.01,,---,0.28,VWS V14.01,2013-06-17 23:28:00,
2013-06-17 19:33:00,63.1,58.8,29.84,NE,36,0.0,1.0,86,0.03,,---,0.30,VWS V14.01,2013-06-17 23:33:00,
2013-06-17 19:38:00,62.4,58.8,29.84,North,10,0.0,0.0,88,0.03,,---,0.30,VWS V14.01,2013-06-17 23:38:00,
2013-06-17 19:43:00,62.0,59.0,29.85,West,273,0.0,0.0,90,0.03,,---,0.30,VWS V14.01,2013-06-17 23:43:00,
2013-06-17 19:48:00,61.7,59.0,29.85,West,272,0.0,0.0,91,0.03,,---,0.30,VWS V14.01,2013-06-17 23:48:00,
2013-06-17 19:53:00,61.6,59.0,29.85,West,273,0.0,0.0,91,0.03,,---,0.30,VWS V14.01,2013-06-17 23:53:00,
2013-06-17 19:58:00,61.4,59.1,29.85,WNW,293,1.0,2.0,92,0.03,,---,0.30,VWS V14.01,2013-06-17 23:58:00,
2013-06-17 20:03:00,61.0,58.7,29.85,West,273,0.0,0.0,92,0.03,,---,0.30,VWS V14.01,2013-06-18 00:03:00,
2013-06-17 20:08:00,60.9,58.9,29.85,West,273,1.0,1.0,93,0.03,,---,0.30,VWS V14.01,2013-06-18 00:08:00,
2013-06-17 20:13:00,60.7,58.7,29.85,West,272,0.0,0.0,93,0.03,,---,0.30,VWS V14.01,2013-06-18 00:13:00,
2013-06-17 20:18:00,60.6,58.6,29.85,NE,37,1.0,1.0,93,0.03,,---,0.30,VWS V14.01,2013-06-18 00:18:00,
2013-06-17 20:23:00,60.1,57.8,29.85,WNW,297,0.0,0.0,92,0.03,,---,0.30,VWS V14.01,2013-06-18 00:23:00,
2013-06-17 20:28:00,59.9,57.6,29.86,West,259,1.0,2.0,92,0.02,,---,0.30,VWS V14.01,2013-06-18 00:28:00,
2013-06-17 20:33:00,59.6,57.3,29.86,West,259,0.0,0.0,92,0.00,,---,0.30,VWS V14.01,2013-06-18 00:33:00,
2013-06-17 20:38:00,59.3,57.0,29.86,West,269,0.0,0.0,92,0.00,,---,0.30,VWS V14.01,2013-06-18 00:38:00,
2013-06-17 20:43:00,59.1,57.1,29.86,West,268,0.0,0.0,93,0.00,,---,0.30,VWS V14.01,2013-06-18 00:43:00,
2013-06-17 20:48:00,58.9,56.9,29.86,SSW,212,0.0,0.0,93,0.00,,---,0.30,VWS V14.01,2013-06-18 00:48:00,
2013-06-17 20:53:00,58.6,56.6,29.86,WSW,240,1.0,1.0,93,0.00,,---,0.30,VWS V14.01,2013-06-18 00:53:00,
2013-06-17 20:58:00,58.4,56.4,29.86,WSW,240,0.0,0.0,93,0.00,,---,0.30,VWS V14.01,2013-06-18 00:58:00,
2013-06-17 21:03:00,58.2,56.2,29.86,WSW,240,0.0,0.0,93,0.00,,---,0.30,VWS V14.01,2013-06-18 01:03:00,
2013-06-17 21:08:00,58.0,56.0,29.86,WSW,240,0.0,0.0,93,0.00,,---,0.30,VWS V14.01,2013-06-18 01:08:00,
2013-06-17 21:13:00,57.8,55.8,29.87,WSW,240,0.0,0.0,93,0.00,,---,0.30,VWS V14.01,2013-06-18 01:13:00,
2013-06-17 21:18:00,57.4,55.4,29.87,WSW,241,0.0,0.0,93,0.00,,---,0.30,VWS V14.01,2013-06-18 01:18:00,
2013-06-17 21:23:00,57.1,55.1,29.87,WSW,240,0.0,0.0,93,0.00,,---,0.30,VWS V14.01,2013-06-18 01:23:00,
2013-06-17 21:28:00,56.8,54.8,29.87,WSW,241,0.0,0.0,93,0.00,,---,0.30,VWS V14.01,2013-06-18 01:28:00,
2013-06-17 21:33:00,56.7,55.0,29.88,West,270,1.0,1.0,94,0.00,,---,0.30,VWS V14.01,2013-06-18 01:33:00,
2013-06-17 21:38:00,56.7,55.0,29.88,South,170,0.0,0.0,94,0.00,,---,0.30,VWS V14.01,2013-06-18 01:38:00,
2013-06-17 21:43:00,56.5,54.8,29.88,SSW,195,0.0,0.0,94,0.00,,---,0.30,VWS V14.01,2013-06-18 01:43:00,
2013-06-17 21:48:00,56.3,54.6,29.88,WSW,243,0.0,0.0,94,0.00,,---,0.30,VWS V14.01,2013-06-18 01:48:00,
2013-06-17 21:53:00,56.3,54.6,29.88,WSW,243,0.0,0.0,94,0.00,,---,0.30,VWS V14.01,2013-06-18 01:53:00,
2013-06-17 21:58:00,56.2,54.5,29.88,WSW,243,0.0,0.0,94,0.00,,---,0.30,VWS V14.01,2013-06-18 01:58:00,
2013-06-17 22:03:00,56.1,54.4,29.88,WSW,241,0.0,0.0,94,0.00,,---,0.30,VWS V14.01,2013-06-18 02:03:00,
2013-06-17 22:08:00,56.0,54.3,29.88,WSW,243,1.0,1.0,94,0.00,,---,0.30,VWS V14.01,2013-06-18 02:08:00,
2013-06-17 22:12:00,55.9,54.2,29.88,WSW,243,0.0,0.0,94,0.00,,---,0.30,VWS V14.01,2013-06-18 02:12:00,
2013-06-17 22:17:00,56.0,54.3,29.89,WSW,243,0.0,0.0,94,0.00,,---,0.30,VWS V14.01,2013-06-18 02:17:00,
2013-06-17 22:22:00,56.0,54.3,29.89,WSW,243,1.0,1.0,94,0.00,,---,0.30,VWS V14.01,2013-06-18 02:22:00,
2013-06-17 22:27:00,55.9,54.2,29.89,West,264,0.0,0.0,94,0.00,,---,0.30,VWS V14.01,2013-06-18 02:27:00,
2013-06-17 22:32:00,55.8,54.1,29.89,West,264,0.0,0.0,94,0.00,,---,0.30,VWS V14.01,2013-06-18 02:32:00,
2013-06-17 22:37:00,55.9,54.2,29.90,West,264,1.0,1.0,94,0.00,,---,0.30,VWS V14.01,2013-06-18 02:37:00,
2013-06-17 22:42:00,56.0,54.3,29.90,West,264,0.0,0.0,94,0.00,,---,0.30,VWS V14.01,2013-06-18 02:42:00,
2013-06-17 22:47:00,56.0,54.3,29.90,West,264,1.0,1.0,94,0.00,,---,0.30,VWS V14.01,2013-06-18 02:47:00,
2013-06-17 22:52:00,56.0,54.3,29.90,West,264,0.0,1.0,94,0.00,,---,0.30,VWS V14.01,2013-06-18 02:52:00,
2013-06-17 22:57:00,56.1,54.7,29.90,West,259,0.0,1.0,95,0.00,,---,0.30,VWS V14.01,2013-06-18 02:57:00,
2013-06-17 23:02:00,56.1,54.4,29.90,WSW,256,1.0,2.0,94,0.00,,---,0.30,VWS V14.01,2013-06-18 03:02:00,
2013-06-17 23:07:00,56.1,54.7,29.90,NNE,16,0.0,2.0,95,0.00,,---,0.30,VWS V14.01,2013-06-18 03:07:00,
2013-06-17 23:12:00,55.9,54.2,29.90,NNW,342,0.0,0.0,94,0.00,,---,0.30,VWS V14.01,2013-06-18 03:12:00,
2013-06-17 23:17:00,55.8,54.1,29.90,NNW,342,0.0,0.0,94,0.00,,---,0.30,VWS V14.01,2013-06-18 03:17:00,
2013-06-17 23:22:00,55.5,53.8,29.91,NE,37,1.0,1.0,94,0.00,,---,0.30,VWS V14.01,2013-06-18 03:22:00,
2013-06-17 23:27:00,55.3,53.6,29.90,West,260,0.0,1.0,94,0.00,,---,0.30,VWS V14.01,2013-06-18 03:27:00,
2013-06-17 23:32:00,55.1,53.4,29.90,ESE,120,0.0,1.0,94,0.00,,---,0.30,VWS V14.01,2013-06-18 03:32:00,
2013-06-17 23:37:00,55.1,53.1,29.91,WNW,294,0.0,2.0,93,0.00,,---,0.30,VWS V14.01,2013-06-18 03:37:00,
2013-06-17 23:42:00,55.2,53.2,29.91,SW,225,0.0,2.0,93,0.00,,---,0.30,VWS V14.01,2013-06-18 03:42:00,
2013-06-17 23:47:00,55.3,52.4,29.91,WSW,243,1.0,1.0,90,0.00,,---,0.30,VWS V14.01,2013-06-18 03:47:00,
2013-06-17 23:52:00,55.6,52.7,29.91,SE,133,1.0,1.0,90,0.00,,---,0.30,VWS V14.01,2013-06-18 03:52:00,
2013-06-17 23:57:00,55.5,52.9,29.91,SE,133,0.0,0.0,91,0.00,,---,0.30,VWS V14.01,2013-06-18 03:57:00,